MOLNIYA 1-36

Last updated on Oct. 21, 2020, 5:57 a.m. UTC

1 09880U 77021A   20293.30632308  .00001478  00000-0  24628-3 0  9998
2 09880  62.6937   0.3504 7466386 286.1746   9.3715  2.00409139217302
UTC
Height (km)
Latitude
Longitude
Inclination
Orbital Period
UTC large
Height (km)
Speed (km/s)
/
Latitude / Longitude
Inclination (degrees)
Orbital Period (minutes)
Azimuth
Elevation
Range (km)
Doppler Factor
iOS Compass Heading
iOS Angle

Next 30 passes for location: Hong Kong

Rise time Rise Azimuth (degrees) Set time Set Azimuth (degrees) Duration Max altitude (degrees)

No matching passes for this satellites